This demonstration page uses our WeatherBlox Daily Observations layout. Learn more.

Left ArrowRight Arrow

39.08367, -84.50855

Hourly Observations for August 31, 2019

Temp ( °F °C ) Dew Point ( °F °C ) Humidity (%) Winds ( mph kmh ) Pressure ( in mb ) Visibility ( mi km ) Precip ( " mm )
12:53 am 00:53 Clear 69 20.6 68 20 96 96 NNE 3 6 30.15 1021 10 16 N/A
1:53 am 01:53 Partly Cloudy with Mist and Fog 67 19.4 67 19.4 100 100 N N/A 30.16 1021 5 8 N/A
2:53 am 02:53 Mostly Clear with Mist and Fog 67 19.4 67 19.4 100 100 N N/A 30.16 1021 6 10 N/A
3:53 am 03:53 Clear with Mist and Fog 67 19.4 67 19.4 100 100 NE 5 7 30.16 1021 6 10 N/A
4:53 am 04:53 Clear 67 19.4 66 18.9 97 97 N N/A 30.17 1022 10 16 N/A
5:53 am 05:53 Clear 66 18.9 64 17.8 93 93 ENE 3 6 30.17 1022 10 16 N/A
6:53 am 06:53 Clear 66 18.9 63 17.2 90 90 ENE 3 6 30.19 1022 10 16 N/A
7:53 am 07:53 Mostly Sunny 66 18.9 63 17.2 90 90 NNE 3 6 30.21 1023 10 16 N/A
8:53 am 08:53 Mostly Sunny 67 19.4 62 16.7 84 84 N N/A 30.21 1023 10 16 N/A
9:53 am 09:53 Mostly Sunny 68 20 62 16.7 81 81 NE 7 11 30.22 1023 10 16 N/A
10:53 am 10:53 Sunny 72 22.2 63 17.2 73 73 N N/A 30.22 1024 10 16 N/A
11:53 am 11:53 Mostly Cloudy 74 23.3 64 17.8 71 71 NE 9 15 30.22 1023 10 16 N/A
12:53 pm 12:53 Sunny 77 25 64 17.8 64 64 NNE 10 17 30.21 1023 10 16 N/A
1:53 pm 13:53 Partly Cloudy 78 25.6 64 17.8 62 62 NE 9 15 30.21 1023 10 16 N/A
2:53 pm 14:53 Mostly Cloudy 77 25 65 18.3 66 66 NE 12 19 30.19 1023 10 16 N/A
3:53 pm 15:53 Mostly Cloudy 74 23.3 64 17.8 71 71 NE 13 20 30.19 1022 10 16 N/A
4:53 pm 16:53 Partly Cloudy 73 22.8 65 18.3 76 76 NE 8 13 30.18 1022 10 16 N/A
5:53 pm 17:53 Sunny 73 22.8 65 18.3 76 76 NE 9 15 30.17 1022 10 16 N/A
6:53 pm 18:53 Mostly Cloudy 73 22.8 65 18.3 76 76 ENE 6 9 30.16 1021 10 16 N/A
7:53 pm 19:53 Mostly Cloudy 72 22.2 64 17.8 76 76 ENE 5 7 30.16 1022 10 16 N/A
8:53 pm 20:53 Mostly Cloudy 71 21.7 63 17.2 76 76 NE 7 11 30.16 1021 10 16 N/A
9:53 pm 21:53 Clear 67 19.4 65 18.3 93 93 E 3 6 30.17 1022 10 16 N/A
10:53 pm 22:53 Clear 66 18.9 65 18.3 96 96 ENE 3 6 30.17 1022 10 16 N/A
11:53 pm 23:53 Clear 64 17.8 64 17.8 100 100 N N/A 30.17 1022 10 16 N/A

Powered by AerisWeather